sat.trackr.live / text

‹ back to catalog

TACSAT 6

NORAD 39473 · 2013-072M

PAYLOAD ACTIVE UNKNOWN

§ Identity

Operator
Country
US
Launch date
2013-12-06
Launch site
AFWTR
Launch vehicle
Mass (kg)
RCS (m²)

External: N2YO · Heavens-Above · Gunter

§ Orbital elements

Epoch: 2026-09-11T12:16:19.202304Z

Period
89.94 min
Inclination
120.4467°
Eccentricity
0.0016161
Mean motion
16.01054517 rev/d
Perigee alt
260.8 km
Apogee alt
282.2 km
Semi-major
6,649.6 km
B*
1.2068e-3
RAAN
139.1217°
Arg perigee
102.4533°
Mean anomaly
257.8388°
Rev number
13,298

§ Raw data

TACSAT 61 39473U 13072M   26254.51133336  .00674739  22126-3  12068-2 0  99942 39473 120.4467 139.1217 0016161 102.4533 257.8388 16.01054517132983

JSON: /api/v1/satellites/39473 · /tle

For live sub-satellite position, see the globe view (requires WebGL).

§ Visibility from observer

Set your observer location to see the next 7 days of passes ≥ 10°. The values pass through the URL so the page stays shareable.

No JS? Fill the form by hand. The geolocation button needs JavaScript.